Date,TemperatureHighF,TemperatureAvgF,TemperatureLowF,DewpointHighF,DewpointAvgF,DewpointLowF,HumidityHigh,HumidityAvg,HumidityLow,PressureMaxIn,PressureMinIn,WindSpeedMaxMPH,WindSpeedAvgMPH,GustSpeedMaxMPH,PrecipitationSumIn
2013-1-1,33,19,0,29,10,-5,93,70,52,29.98,29.68,8,2,13,0.00
2013-1-2,16,7,0,13,2,-6,87,81,70,30.28,29.89,7,2,9,0.00
2013-1-3,14,3,-11,9,-4,-14,86,75,66,30.29,29.95,6,1,9,0.00
2013-1-4,36,28,14,30,22,9,96,81,65,29.93,29.75,9,2,20,0.01
2013-1-5,35,25,10,28,16,7,89,72,57,30.24,29.79,7,1,11,0.00
2013-1-6,35,27,13,31,23,10,93,83,74,30.18,29.88,12,3,15,0.01
2013-1-7,24,19,10,19,14,7,91,82,70,30.39,29.99,10,3,32,0.00
2013-1-8,38,27,15,26,21,13,93,78,61,30.37,30.19,12,3,22,0.00
2013-1-9,44,28,11,33,22,9,95,79,48,30.37,29.90,13,3,19,0.00
2013-1-10,41,36,22,32,26,20,90,66,56,30.56,30.05,11,2,17,0.00
2013-1-11,38,30,18,36,25,17,96,84,59,30.56,30.09,10,2,21,0.05
2013-1-12,45,41,37,42,40,35,97,94,89,30.12,30.04,12,5,22,0.00
2013-1-13,46,43,40,45,42,39,98,95,91,30.11,29.89,19,5,23,0.00
2013-1-14,51,42,30,46,35,24,96,77,46,30.30,29.79,16,3,25,0.00
2013-1-15,35,32,26,26,23,21,89,71,58,30.34,30.24,4,0,7,0.00
2013-1-16,31,30,27,29,27,24,93,90,82,30.24,29.77,11,2,17,0.00
2013-1-17,33,22,8,29,14,-3,93,72,53,30.22,29.78,9,3,22,0.00
2013-1-18,20,11,0,9,0,-6,83,60,40,30.39,30.18,9,1,13,0.00
2013-1-19,40,31,20,27,20,9,88,65,56,30.24,29.71,13,6,33,0.00
2013-1-20,42,34,18,33,21,1,82,59,44,29.98,29.39,13,5,28,0.00
2013-1-21,20,14,8,11,5,-2,89,69,44,30.08,29.84,8,1,13,0.00
2013-1-22,16,10,5,9,3,-8,89,75,47,30.11,29.82,6,1,9,0.00
2013-1-23,4,-2,-8,-3,-11,-16,83,66,54,30.23,30.10,6,1,10,0.00
2013-1-24,11,1,-11,-4,-10,-15,85,65,38,30.38,30.19,6,1,10,0.00
2013-1-25,13,7,-1,6,-3,-8,82,64,46,30.41,30.13,5,1,10,0.00
2013-1-26,15,10,5,6,2,-2,86,69,52,30.32,30.11,6,2,9,0.00
2013-1-27,19,12,5,7,2,-1,80,64,45,30.53,30.32,4,1,8,0.00
2013-1-28,24,17,5,22,13,1,95,85,59,30.49,29.99,6,1,11,0.00
2013-1-29,35,28,24,34,26,22,97,92,87,30.17,29.98,7,1,13,0.07
2013-1-30,55,46,36,54,45,35,98,95,93,29.97,29.26,17,7,36,0.26
2013-1-31,55,40,25,54,31,9,99,72,45,29.55,28.79,14,5,25,0.62
2013-2-1,26,20,12,12,8,5,80,61,47,30.12,29.55,8,2,12,0.00
2013-2-2,22,17,10,16,10,5,90,74,58,30.19,30.03,13,2,19,0.00
2013-2-3,27,17,7,16,11,4,93,80,54,30.04,29.76,4,0,5,0.00
2013-2-4,26,19,11,16,6,-7,93,63,24,29.89,29.74,9,2,25,0.00
2013-2-6,32,20,11,14,-2,-100,50,41,36,30.40,30.03,11,3,14,0.00
2013-2-7,13,9,4,2,-3,-7,67,59,49,30.62,30.39,8,2,15,0.00
2013-2-8,23,16,11,21,13,2,95,87,67,30.45,29.93,6,1,11,0.03
2013-2-9,19,12,-1,17,4,-6,93,71,48,30.38,29.94,12,4,18,0.00
2013-2-10,27,8,-11,7,-2,-15,88,68,35,30.52,30.26,4,0,9,0.00
2013-2-11,39,31,19,37,24,6,97,75,42,30.25,29.60,11,2,15,0.02
2013-2-12,41,37,33,31,29,26,80,72,61,29.84,29.59,9,1,13,0.00
2013-2-13,38,33,26,28,25,23,87,72,56,29.84,29.73,4,0,9,0.00
2013-2-14,38,33,29,30,25,21,94,75,52,29.92,29.75,4,0,9,0.00
2013-2-15,44,37,30,32,27,23,89,70,46,29.96,29.84,11,3,19,0.00
2013-2-16,33,27,20,23,15,6,79,61,49,30.02,29.93,7,2,11,0.00
2013-2-17,19,14,12,9,5,0,85,66,46,29.92,29.70,7,3,17,0.00
2013-2-18,28,17,10,6,0,-5,73,50,26,30.15,29.89,8,1,10,0.00
2013-2-19,42,29,12,33,18,5,97,67,40,30.15,29.60,15,2,18,0.31
2013-2-20,32,28,25,32,21,13,97,76,50,29.79,29.60,7,1,13,0.00
2013-2-21,25,19,12,19,11,4,90,72,58,30.41,29.79,8,2,11,0.00
2013-2-22,33,26,15,26,22,13,94,83,71,30.45,30.23,2,0,5,0.00
2013-2-23,36,34,30,33,29,25,96,83,69,30.23,29.90,12,3,16,0.06
2013-2-24,35,33,30,34,32,29,98,96,92,29.96,29.79,5,0,7,0.17
2013-2-25,37,32,30,33,31,29,98,94,85,30.16,29.97,2,0,3,0.01
2013-2-26,42,38,32,35,30,-100,99,76,68,30.32,0.00,5,-16,12,0.00
2013-2-27,40,36,33,35,31,27,97,85,67,30.09,29.63,8,1,16,0.15
2013-2-28,46,37,32,37,34,31,98,89,64,29.63,29.54,7,1,12,0.03
2013-3-1,37,33,32,32,30,28,94,86,75,29.78,29.62,7,2,10,0.00
2013-3-2,33,29,23,30,26,22,95,87,74,29.80,29.74,9,2,11,0.00
2013-3-3,31,27,23,26,22,20,94,84,75,29.78,29.69,4,1,7,0.00
2013-3-4,31,27,25,25,22,20,91,81,65,29.91,29.72,7,1,11,0.00
2013-3-5,35,29,25,28,25,22,92,84,72,30.12,29.91,6,1,9,0.01
2013-3-6,43,35,25,34,28,23,95,77,55,30.18,30.10,9,2,13,0.01
2013-3-7,36,34,30,27,25,22,84,71,57,30.21,30.16,7,3,12,0.00
2013-3-8,38,32,28,27,26,24,89,77,65,30.34,30.16,10,4,20,0.00
2013-3-9,45,34,22,29,24,20,91,71,40,30.38,30.29,7,1,11,0.00
2013-3-10,54,40,23,29,26,21,94,61,34,30.35,30.11,16,4,23,0.00
2013-3-11,48,45,40,36,33,29,73,62,48,30.17,29.94,16,8,26,0.00
2013-3-12,52,46,37,50,43,34,97,90,61,29.97,29.66,12,4,23,2.05
2013-3-13,42,36,29,37,33,28,99,91,72,29.83,29.74,4,0,9,0.42
2013-3-14,30,26,19,28,16,6,96,69,53,29.95,29.74,8,2,14,0.00
2013-3-15,33,26,15,29,17,6,95,72,46,29.95,29.58,12,3,19,0.00
2013-3-16,27,23,20,23,15,12,87,71,59,29.94,29.75,7,1,9,0.00
2013-3-17,26,20,10,16,9,3,91,66,42,30.37,29.94,10,2,12,0.00
2013-3-18,33,23,8,24,10,4,85,58,36,30.47,30.13,8,1,10,0.00
2013-3-19,35,30,27,32,28,24,97,94,80,30.12,29.73,7,1,10,0.02
2013-3-20,32,29,22,28,23,20,97,80,65,29.73,29.64,3,-371,7,0.02
2013-3-21,32,32,32,22,22,22,66,66,66,29.74,29.61,0,-999,0,0.00
2013-3-22,32,32,32,22,22,22,66,66,66,29.77,29.64,0,-999,0,0.00
2013-3-23,32,32,32,22,22,22,66,66,66,29.82,29.68,0,-999,0,0.00
2013-3-24,32,32,32,22,22,22,66,66,66,29.88,29.79,0,-999,0,0.00
2013-3-25,32,32,32,22,22,22,66,66,66,29.82,29.57,0,-999,0,0.00
2013-3-26,32,32,32,22,22,22,66,66,66,29.81,29.62,0,-999,0,0.00
2013-3-27,32,32,32,22,22,22,66,66,66,29.94,29.79,0,-999,0,0.00
2013-3-28,51,36,32,36,26,22,88,69,57,30.06,29.94,3,-666,10,0.00
2013-3-29,49,42,34,37,34,30,93,74,50,30.09,30.00,7,1,10,0.00
2013-3-30,51,39,26,33,25,18,94,61,27,30.13,30.02,6,1,10,0.00
2013-3-31,57,42,24,41,28,20,92,62,34,30.11,29.71,16,4,25,0.08
2013-4-1,48,40,30,43,30,12,94,71,31,29.80,29.50,8,4,21,0.14
2013-4-2,34,30,26,19,12,8,64,47,34,29.92,29.80,10,2,17,0.00
2013-4-3,42,34,27,17,12,8,56,41,26,30.22,29.93,10,3,18,0.00
2013-4-4,53,39,22,25,20,14,77,48,31,30.29,29.90,18,4,23,0.00
2013-4-5,48,44,40,30,26,23,56,49,41,29.99,29.77,13,-323,16,0.00
2013-4-6,46,46,46,27,27,27,49,49,49,30.29,30.00,0,-999,0,0.00
2013-4-7,58,51,46,39,30,24,61,46,30,30.25,29.78,29,-428,40,0.00
2013-4-8,53,47,42,39,34,33,77,63,51,30.13,29.88,9,2,11,0.00
2013-4-9,54,47,41,48,41,38,96,81,63,30.02,29.78,6,1,13,0.15
2013-4-10,49,45,42,45,42,39,98,91,78,30.01,29.91,5,1,7,0.46
2013-4-11,42,36,34,40,24,16,95,64,43,30.20,29.93,8,3,13,0.12
2013-4-12,35,34,32,34,30,21,97,87,59,30.19,29.81,6,1,10,0.48
2013-4-13,50,43,34,40,37,33,96,80,65,29.90,29.77,13,3,15,0.11
2013-4-14,46,41,30,38,34,28,92,77,58,30.24,29.88,7,1,11,0.00
2013-4-15,60,44,25,38,32,24,96,67,40,30.37,30.18,12,2,17,0.00
2013-4-16,58,53,49,53,42,34,88,66,52,30.24,29.93,16,6,32,0.00
2013-4-29,67,60,57,48,42,-100,67,55,43,30.18,30.12,12,-28,20,0.00
2013-4-30,73,62,53,50,46,42,79,58,41,30.27,30.18,14,3,17,0.00
2013-5-1,80,65,50,48,41,35,85,44,27,30.42,30.24,5,1,13,0.00
2013-5-2,80,67,54,50,44,37,63,44,29,30.43,30.25,7,2,12,0.00
2013-5-3,73,61,49,44,38,31,72,45,27,30.48,30.28,11,2,14,0.00
2013-5-4,76,62,47,49,45,41,83,57,29,30.32,30.14,4,1,9,0.00
2013-5-5,81,66,50,45,39,33,81,40,22,30.23,30.06,9,3,19,0.00
2013-5-6,80,66,54,49,36,20,65,37,11,30.20,30.00,10,3,18,0.00
2013-5-7,86,68,54,54,44,23,79,47,11,30.12,29.97,8,1,16,0.00
2013-5-8,80,67,54,63,57,44,98,71,41,30.13,29.98,9,2,20,0.42
2013-5-9,76,65,56,62,57,51,100,77,44,29.98,29.81,7,1,13,0.02
2013-5-10,69,62,55,61,58,53,96,86,67,29.97,29.76,7,1,9,0.04
2013-5-11,71,64,55,64,58,49,95,83,59,29.77,29.57,14,3,20,0.25
2013-5-12,61,54,43,50,41,27,93,65,30,29.76,29.61,9,2,15,0.00
2013-5-13,53,46,41,37,31,27,81,56,41,30.05,29.75,9,2,17,0.00
2013-5-14,58,46,32,37,32,28,95,63,33,30.11,29.98,8,1,8,0.00
2013-5-15,64,48,31,51,40,29,94,76,36,30.02,29.58,14,2,21,0.06
2013-5-16,77,58,42,49,41,-100,98,61,24,29.88,29.59,9,-8,23,0.00
2013-5-17,67,55,45,46,42,40,90,64,40,30.20,29.88,6,1,11,0.00
2013-5-18,76,57,37,48,42,36,96,62,27,30.29,30.16,4,0,8,0.00
2013-5-19,69,59,50,57,52,44,96,80,61,30.25,30.08,10,2,19,0.31
2013-5-20,71,63,57,65,59,55,98,89,77,30.07,29.94,8,1,17,0.01
2013-5-21,76,62,57,68,59,56,100,90,72,29.94,29.77,11,2,13,0.92
2013-5-22,78,69,57,72,65,57,100,88,75,29.83,29.69,8,2,17,0.28
2013-5-23,78,71,62,69,66,61,98,85,66,29.74,29.65,13,2,20,0.82
2013-5-24,62,49,45,62,48,43,99,96,91,30.02,29.67,8,2,13,1.27
2013-5-25,45,43,41,44,42,40,97,96,94,30.01,29.90,8,4,12,2.09
2013-5-26,50,44,38,47,42,38,99,93,83,30.08,29.85,8,2,12,1.01
2013-5-27,68,52,34,46,40,34,100,69,33,30.15,30.06,5,1,10,0.01
2013-5-28,75,59,38,51,45,37,97,64,32,30.21,30.06,5,1,14,0.00
2013-5-29,69,63,56,66,60,51,98,90,68,30.07,29.89,13,1,19,0.68
2013-5-30,91,75,60,71,66,60,100,76,42,30.05,29.94,3,0,9,0.00
2013-5-31,92,77,61,73,67,60,98,73,45,30.04,29.83,12,1,16,0.00
2013-6-1,89,77,64,74,68,63,98,75,53,29.89,29.73,8,1,15,0.11
2013-6-2,87,73,66,74,69,62,99,87,58,29.77,29.61,11,2,18,0.86
2013-6-3,72,66,56,62,55,41,94,70,51,29.85,29.72,11,2,12,0.00
2013-6-4,66,58,50,49,45,41,89,62,49,30.09,29.84,11,2,16,0.00
2013-6-5,70,60,47,50,47,43,95,66,39,30.20,30.08,5,0,6,0.00
2013-6-6,66,57,54,54,52,48,96,82,56,30.15,30.04,6,1,7,0.09
2013-6-7,58,55,53,55,53,50,98,93,81,30.03,29.85,4,0,9,0.76
2013-6-8,62,58,54,59,56,53,99,94,87,30.00,29.75,4,0,9,0.21
2013-6-9,79,66,57,61,58,54,100,79,42,30.14,30.00,4,0,10,0.01
2013-6-10,75,63,51,64,58,51,98,85,55,30.17,29.93,5,0,12,0.55
2013-6-11,63,59,57,60,58,57,100,97,90,29.92,29.55,1,0,5,2.16
2013-6-12,69,60,55,58,56,54,99,86,66,29.82,29.59,8,2,14,0.38
2013-6-13,67,61,53,60,57,53,99,87,74,29.80,29.66,7,0,7,0.00
2013-6-14,76,64,52,60,56,50,99,78,49,29.83,29.67,9,1,12,0.00
2013-6-15,79,64,47,55,49,44,95,62,32,29.94,29.83,4,0,6,0.00
2013-6-16,68,62,54,61,55,48,98,79,63,29.88,29.66,6,1,14,0.12
2013-6-17,78,65,53,64,59,52,100,84,51,29.92,29.74,6,1,9,0.14
2013-6-18,71,60,52,54,52,48,93,75,48,29.98,29.90,3,0,7,0.01
2013-6-19,69,59,46,50,44,37,92,61,32,30.16,29.97,11,2,13,0.00
2013-6-20,79,62,43,57,49,42,97,67,35,30.24,30.13,3,0,7,0.00
2013-6-21,85,68,50,63,56,49,96,69,38,30.23,30.14,8,0,8,0.00
2013-6-22,81,68,59,69,64,57,99,86,63,30.16,30.04,8,1,11,0.58
2013-6-23,86,75,66,76,70,66,100,85,68,30.05,29.88,13,1,27,0.23
2013-6-24,91,77,68,75,70,67,96,80,55,29.94,29.83,5,1,13,0.24
2013-6-25,87,74,68,74,70,66,99,87,63,29.89,29.69,8,1,20,0.24
2013-6-26,80,72,67,72,70,67,100,93,75,29.76,29.70,7,1,11,1.40
2013-6-27,87,76,68,73,70,67,97,82,55,29.76,29.65,4,1,9,0.03
2013-6-28,82,68,59,71,64,59,100,87,58,29.67,29.35,11,2,16,1.50
2013-6-29,81,70,62,69,65,61,98,85,63,29.64,29.46,5,1,14,0.00
2013-6-30,85,73,64,70,67,64,100,84,55,29.89,29.64,4,0,7,1.32
2013-7-1,72,67,62,67,65,62,98,91,82,30.05,29.90,5,1,8,0.39
2013-7-2,82,67,60,73,65,59,99,93,75,30.12,30.03,5,0,8,0.32
2013-7-3,89,77,68,77,73,67,100,89,65,30.12,30.05,12,2,16,0.04
2013-7-4,89,78,71,79,74,71,100,89,66,30.14,30.02,8,1,14,0.89
2013-7-5,92,78,70,77,74,70,99,87,60,30.10,29.99,10,1,12,0.04
2013-7-6,92,78,70,74,71,65,97,80,43,30.04,29.94,3,0,8,0.00
2013-7-7,88,75,66,74,70,65,96,84,57,30.00,29.88,7,0,9,0.00
2013-7-8,81,72,69,72,70,68,99,93,72,30.01,29.89,4,0,7,0.07
2013-7-9,88,76,66,74,70,65,99,82,58,30.05,29.92,5,0,9,0.00
2013-7-10,82,76,72,76,72,69,96,87,77,29.93,29.67,11,2,18,0.25
2013-7-11,81,74,62,74,67,59,96,79,53,29.98,29.68,7,2,11,0.01
2013-7-12,78,69,61,64,61,59,95,77,56,30.17,29.98,3,1,7,0.00
2013-7-13,83,72,59,70,65,58,97,79,63,30.26,30.18,4,0,10,0.00
2013-7-14,90,79,72,75,72,69,93,80,58,30.27,30.16,3,0,9,0.00
2013-7-15,94,80,68,75,70,65,99,75,38,30.20,30.08,5,0,8,0.00
2013-7-16,89,80,68,74,71,66,96,76,53,30.19,30.11,7,0,10,0.00
2013-7-17,95,83,69,78,73,68,96,74,48,30.15,29.90,5,1,13,0.09
2013-7-18,94,81,70,78,74,70,99,81,54,30.00,29.86,9,1,9,0.01
2013-7-19,96,83,74,79,74,70,96,75,47,29.87,29.60,13,2,17,0.04
2013-7-20,87,78,69,73,68,60,86,72,41,29.79,29.60,13,2,16,0.00
2013-7-21,76,68,60,63,57,54,93,70,56,29.99,29.79,5,1,9,0.00
2013-7-22,85,70,56,69,62,54,97,77,54,30.01,29.81,3,0,8,0.32
2013-7-23,83,72,69,71,70,68,99,92,65,29.80,29.50,2,0,6,0.73
2013-7-24,70,66,56,69,60,50,99,82,61,30.02,29.52,14,2,14,0.64
2013-7-25,70,60,48,56,51,47,96,75,59,30.14,30.03,6,1,11,0.00
2013-7-26,75,64,54,63,58,53,97,82,63,30.09,29.99,4,1,9,0.00
2013-7-27,84,69,54,65,60,53,99,75,45,30.03,29.91,5,0,10,0.00
2013-7-28,81,73,68,70,66,63,91,80,68,29.94,29.86,8,1,12,0.00
2013-7-29,83,72,66,69,64,55,98,78,39,30.05,29.91,7,1,13,0.98
2013-7-30,80,70,59,62,60,57,96,72,47,30.11,30.03,5,0,8,0.00
2013-7-31,84,70,56,64,60,55,97,74,47,30.13,29.98,4,0,8,0.00
2013-8-1,79,67,59,67,63,58,95,87,66,29.98,29.78,8,1,16,0.28
2013-8-2,83,71,62,67,62,54,99,75,39,29.80,29.73,5,1,13,0.00
2013-8-3,79,70,61,64,59,55,97,72,46,29.81,29.73,5,1,13,0.34
2013-8-4,74,66,57,63,57,53,96,75,51,29.91,29.78,9,1,11,0.12
2013-8-5,73,63,52,55,48,36,92,62,30,30.02,29.91,6,1,11,0.00
2013-8-6,78,64,50,57,53,48,95,70,41,30.10,30.02,4,0,8,0.00
2013-8-7,81,70,56,64,61,54,94,73,51,30.11,29.96,11,2,25,0.00
2013-8-8,85,74,68,72,68,62,100,81,60,29.96,29.89,13,2,30,2.22
2013-8-9,80,73,68,75,72,67,100,96,79,29.91,29.72,5,0,9,1.42
2013-8-10,78,68,59,68,57,50,100,71,39,30.01,29.76,8,1,10,0.00
2013-8-11,82,67,54,65,57,52,97,72,42,30.07,29.94,4,0,10,0.00
2013-8-12,82,68,56,66,60,55,95,76,48,30.00,29.84,3,0,8,0.00
2013-8-13,75,66,63,67,64,60,99,90,72,29.85,29.64,6,1,12,0.70
2013-8-14,70,62,52,64,56,51,99,81,60,29.95,29.65,6,1,12,0.00
2013-8-15,78,62,48,57,52,47,98,74,41,30.07,29.95,8,1,11,0.00
2013-8-16,81,66,50,63,56,49,95,75,45,30.18,30.07,4,1,9,0.00
2013-8-17,77,66,56,63,59,55,99,81,58,30.29,30.19,4,0,6,0.00
2013-8-18,80,67,54,65,60,53,98,80,55,30.26,30.05,8,0,8,0.00
2013-8-19,87,69,56,68,61,55,98,78,44,30.06,29.92,6,0,9,0.00
2013-8-20,88,72,58,70,63,58,98,77,45,30.06,29.97,5,0,10,0.00
2013-8-21,90,75,61,72,65,60,97,76,41,30.12,29.95,5,1,12,0.00
2013-8-22,88,74,64,70,67,62,98,82,54,29.97,29.76,11,1,13,0.09
2013-8-23,72,65,54,68,56,52,97,75,52,30.17,29.86,7,1,12,0.00
2013-8-24,79,62,47,58,52,43,97,74,30,30.33,30.18,5,0,6,0.00
2013-8-25,80,65,48,63,56,47,97,75,41,30.36,30.09,8,1,10,0.06
2013-8-26,76,70,64,70,66,62,98,87,78,30.10,29.84,5,1,11,1.46
2013-8-27,84,74,68,73,70,68,100,88,61,29.89,29.82,3,0,5,0.00
2013-8-28,85,74,66,74,70,65,100,87,65,29.90,29.81,2,0,5,0.00
2013-8-29,85,72,65,70,67,65,99,84,53,30.03,29.91,3,0,6,0.00
2013-8-30,87,75,66,72,69,64,97,81,60,29.96,29.72,4,1,12,0.00
2013-8-31,78,72,69,74,70,68,99,94,80,29.77,29.70,5,0,7,0.64
2013-9-1,82,74,69,71,69,67,98,86,69,29.84,29.75,4,0,7,0.00
2013-9-2,82,73,64,72,69,64,98,88,70,29.78,29.62,4,1,13,0.52
2013-9-3,77,69,63,65,63,60,99,82,65,29.78,29.66,9,1,15,0.00
2013-9-4,79,67,57,61,59,56,97,78,47,29.89,29.78,8,1,15,0.11
2013-9-5,66,59,46,61,48,39,97,68,39,30.16,29.86,5,1,12,0.04
2013-9-6,70,56,40,48,44,39,97,68,41,30.26,30.03,5,1,11,0.00
2013-9-7,68,61,55,57,52,48,78,71,64,30.04,29.82,7,1,12,0.00
2013-9-8,64,58,44,56,48,41,94,70,45,30.09,29.75,7,2,17,0.16
2013-9-9,69,55,40,51,46,38,97,73,48,30.20,30.03,9,1,20,0.00
2013-9-10,76,67,58,71,63,51,98,87,74,30.05,29.94,11,2,16,1.34
2013-9-11,91,79,73,80,74,68,94,84,68,29.98,29.82,13,2,19,0.14
2013-9-12,82,73,68,74,70,67,99,89,73,29.87,29.58,7,1,11,0.23
2013-9-13,68,60,55,68,57,50,99,90,83,29.85,29.58,6,2,13,0.19
2013-9-14,64,56,46,51,50,45,97,80,63,30.06,29.84,6,1,8,0.00
2013-9-15,68,56,43,55,50,42,99,83,62,30.13,29.99,5,1,12,0.00
2013-9-16,58,51,39,55,46,37,98,84,56,30.32,29.99,10,2,13,0.37
2013-9-17,63,48,34,48,41,34,98,79,43,30.48,30.30,4,0,6,0.00
2013-9-18,72,55,39,52,46,38,98,76,46,30.30,30.10,5,1,11,0.00
2013-9-19,79,59,42,59,51,42,98,77,39,30.15,29.99,7,1,10,0.00
2013-9-20,80,64,48,61,54,47,98,74,41,30.07,29.87,8,1,12,0.00
2013-9-21,76,67,60,63,58,52,96,76,44,29.89,29.56,13,4,30,0.94
2013-9-22,65,58,49,62,52,42,98,81,57,29.90,29.54,7,1,13,0.44
2013-9-23,55,49,44,42,40,38,82,72,60,30.05,29.90,7,1,12,0.00
2013-9-24,63,53,45,47,43,40,94,70,51,30.03,29.88,8,1,9,0.00
2013-9-25,67,53,40,52,47,39,98,81,59,29.99,29.90,6,1,10,0.00
2013-9-26,63,53,40,52,47,39,99,82,64,30.15,30.00,6,1,11,0.00
2013-9-27,66,57,47,54,51,46,97,83,63,30.28,30.15,4,0,5,0.00
2013-9-28,77,55,41,59,50,41,99,85,45,30.36,30.21,2,0,5,0.00
2013-9-29,76,58,44,58,51,43,100,81,46,30.21,30.01,4,0,10,0.00
2013-9-30,77,58,44,57,51,44,99,81,47,30.07,29.93,5,0,8,0.00
2013-10-1,77,58,44,63,52,-100,99,84,58,29.99,29.83,5,-11,6,0.00
2013-10-2,81,64,52,64,56,51,99,78,42,29.94,29.79,7,1,14,0.00
2013-10-3,72,57,46,54,50,45,97,78,50,30.09,29.94,5,0,5,0.00
2013-10-4,61,54,44,57,51,43,98,90,78,30.09,30.03,3,0,7,0.00
2013-10-5,62,57,53,53,50,47,93,78,60,30.12,30.06,4,0,8,0.04
2013-10-6,60,56,54,55,51,47,96,83,74,30.12,29.98,11,1,22,0.23
2013-10-7,76,63,55,66,58,49,95,82,65,29.97,29.53,18,4,30,0.84
2013-10-8,60,51,39,49,43,38,94,75,47,30.36,29.86,5,1,10,0.00
2013-10-9,67,48,33,46,39,33,98,76,34,30.46,30.32,4,1,13,0.00
2013-10-10,63,49,38,51,44,37,97,83,54,30.32,30.16,4,0,6,0.00
2013-10-11,67,53,44,52,47,43,99,83,54,30.17,30.11,4,0,7,0.00
2013-10-12,75,55,38,56,48,38,99,81,49,30.32,30.16,7,1,12,0.00
2013-10-13,70,59,51,53,50,49,91,74,54,30.38,30.25,12,3,19,0.00
2013-10-14,58,55,52,56,52,49,99,90,74,30.30,30.23,11,2,18,0.15
2013-10-15,64,56,50,58,54,50,100,94,80,30.27,30.07,3,0,5,0.00
2013-10-16,65,60,55,56,54,51,94,81,68,30.06,29.78,16,4,22,0.03
2013-10-17,68,60,53,57,53,49,96,80,52,29.81,29.66,14,2,18,0.23
2013-10-18,63,55,44,54,48,39,100,81,55,29.88,29.59,7,1,15,1.18
2013-10-19,62,52,42,48,44,39,93,75,58,29.89,29.62,15,2,21,0.04
2013-10-20,59,51,40,49,41,36,92,70,42,29.98,29.61,10,2,15,0.00
2013-10-21,63,51,36,46,41,34,96,71,50,30.05,29.83,10,2,19,0.00
2013-10-22,57,51,39,49,40,31,84,68,49,29.82,29.67,13,4,18,0.04
2013-10-23,52,44,35,37,34,31,89,69,50,29.76,29.59,7,0,12,0.00
2013-10-24,47,40,31,40,34,28,93,80,62,29.87,29.66,9,1,14,0.09
2013-10-25,47,41,36,37,31,27,94,70,49,30.11,29.88,5,1,9,0.00
2013-10-26,48,41,32,36,34,29,91,75,53,30.10,29.77,12,4,16,0.00
2013-10-27,50,43,31,38,34,29,91,69,53,30.02,29.73,7,2,11,0.00
2013-10-28,47,39,27,41,31,22,92,74,41,30.38,30.00,7,1,13,0.10
2013-10-29,44,32,20,29,24,19,94,77,47,30.48,30.34,3,0,6,0.00
2013-10-30,48,37,28,37,31,25,95,80,63,30.33,30.17,5,1,10,0.00
2013-10-31,60,46,30,58,44,29,97,95,89,30.21,29.57,12,4,17,0.13
2013-11-1,70,62,55,62,54,43,96,77,41,29.60,29.25,21,7,29,0.37
2013-11-2,56,46,38,46,42,33,94,85,68,29.90,29.59,7,2,15,0.09
2013-11-3,37,33,24,32,22,18,84,63,46,30.50,29.90,8,3,9,0.00
2013-11-4,37,29,21,22,19,17,89,70,48,30.70,30.51,6,1,8,0.00
2013-11-5,49,40,23,36,28,20,89,64,49,30.65,30.40,13,3,14,0.00
2013-11-6,58,51,44,46,42,36,78,71,62,30.40,29.84,11,6,18,0.00
2013-11-7,56,48,32,52,42,25,95,81,60,29.88,29.70,11,3,14,0.24
2013-11-8,41,36,30,31,27,23,92,71,53,30.10,29.84,6,1,10,0.00
2013-11-9,43,38,28,34,26,22,87,64,50,30.19,29.91,6,2,11,0.00
2013-11-10,46,41,37,41,36,31,93,83,71,29.90,29.67,10,3,12,0.05
2013-11-11,45,40,32,36,30,27,92,70,60,30.10,29.82,9,3,11,0.00
2013-11-12,34,29,24,29,19,15,82,66,57,30.26,29.91,5,1,8,0.00
2013-11-13,34,27,18,23,16,12,83,63,46,30.33,30.03,6,2,10,0.00
2013-11-14,45,38,32,32,26,21,70,60,53,30.03,29.99,10,4,12,0.00
2013-11-15,53,44,38,26,22,19,63,43,32,30.14,30.03,9,3,12,0.00
2013-11-16,58,46,36,32,29,24,73,53,37,30.26,30.14,8,1,11,0.00
2013-11-17,60,51,40,54,44,32,94,78,62,30.21,29.63,11,3,15,0.12
2013-11-18,62,53,43,57,44,30,94,71,47,29.64,29.34,15,5,24,0.20
2013-11-19,42,34,28,31,20,17,78,58,52,30.38,29.65,7,2,8,0.00
2013-11-20,35,28,18,21,18,16,92,69,54,30.64,30.39,8,1,8,0.00
2013-11-21,41,31,16,28,20,14,96,67,36,30.63,30.32,9,2,10,0.00
2013-11-22,45,40,37,42,37,28,97,89,67,30.32,29.80,8,1,9,0.20
2013-11-23,45,33,22,39,23,12,83,66,48,29.97,29.77,6,2,11,0.00
2013-11-24,23,19,14,12,3,-3,69,51,40,30.27,29.88,6,1,7,0.00
2013-11-25,30,20,6,17,7,-4,82,60,38,30.40,30.15,7,2,11,0.00
2013-11-26,34,32,30,31,26,16,97,79,53,30.24,29.96,8,2,10,0.00
2013-11-27,37,34,31,37,33,26,98,96,82,29.95,29.39,4,1,10,1.98
2013-11-28,31,22,14,26,12,8,87,65,46,30.44,29.54,6,1,14,0.00
2013-11-29,25,17,10,14,11,7,90,77,49,30.78,30.44,4,0,8,0.00
2013-11-30,28,20,8,16,12,5,90,71,55,30.80,30.32,6,1,10,0.00
2013-12-1,38,32,27,31,27,17,97,80,63,30.31,30.03,6,2,11,0.00
2013-12-2,39,34,28,34,32,28,98,90,80,30.04,29.89,5,1,11,0.00
2013-12-3,42,34,28,36,31,27,97,88,75,30.00,29.90,4,1,8,0.00
2013-12-4,39,31,24,30,26,21,95,83,66,30.15,30.00,5,0,5,0.00
2013-12-5,53,44,28,52,41,26,94,87,79,30.12,29.79,11,3,12,0.00
2013-12-6,52,40,33,49,35,27,97,85,68,30.14,29.85,6,1,8,0.75
2013-12-7,34,31,28,30,20,13,88,65,47,30.47,30.12,5,1,9,0.00
2013-12-8,29,26,23,20,15,12,77,64,55,30.60,30.45,3,0,7,0.00
2013-12-9,35,30,24,33,26,16,96,86,62,30.45,29.84,9,2,13,0.00
2013-12-10,36,30,18,31,20,9,95,68,48,29.95,29.80,5,1,10,0.00
2013-12-11,28,22,15,22,15,8,91,76,56,30.19,29.96,10,1,14,0.00
2013-12-12,19,15,6,11,5,-1,78,64,47,30.32,29.95,11,1,13,0.00
2013-12-13,18,14,4,15,7,-3,91,74,56,30.47,29.90,4,1,9,0.00
2013-12-14,10,5,0,7,-1,-6,89,74,54,30.64,30.14,3,0,4,0.00
2013-12-15,23,18,8,20,16,6,93,91,87,30.12,29.55,3,0,5,0.00
2013-12-16,19,12,1,13,3,-6,93,69,48,30.26,29.70,3,0,6,0.00
2013-12-17,17,2,-13,13,-2,-17,88,84,75,30.27,30.01,3,0,5,0.00
2013-12-18,25,18,10,22,14,7,92,86,74,30.01,29.94,2,-116,3,0.00
2013-12-19,35,31,24,28,24,22,90,78,66,30.06,29.89,5,-228,9,0.00
2013-12-20,38,29,23,33,26,21,94,89,76,30.06,29.88,7,-283,8,0.04
2013-12-21,46,28,24,40,26,22,95,92,74,29.98,29.79,9,-269,11,0.08
2013-12-22,29,27,23,28,26,22,97,96,94,29.98,29.73,2,-326,7,0.00
2013-12-23,31,27,23,31,26,22,97,96,96,30.18,29.96,2,-250,3,0.00
2013-12-24,25,17,8,23,15,4,97,89,82,30.35,30.17,5,-249,7,0.00
2013-12-25,13,8,1,9,3,-3,89,82,73,30.58,30.36,3,-180,6,0.00
2013-12-26,28,22,13,25,19,9,94,88,83,30.39,30.08,5,-218,11,0.00
2013-12-27,31,25,17,25,22,15,96,88,76,30.21,30.13,6,-228,14,0.00
2013-12-28,38,32,21,34,28,19,93,85,81,30.13,29.97,8,-217,13,0.01
2013-12-29,41,36,31,36,32,29,98,86,68,29.98,29.58,9,-240,11,0.85
2013-12-30,34,22,6,34,16,-3,98,78,53,30.23,29.56,5,-276,8,0.00
2013-12-31,16,10,5,13,4,-3,89,76,61,30.23,30.01,8,-178,9,0.00
2014-1-1,18,11,-1,11,3,-11,84,70,51,30.48,30.14,5,-178,9,0.00
2014-1-2,-2,-6,-10,-10,-12,-15,83,75,64,30.47,30.07,3,-208,13,0.00